| time (UTC) | temp C | wind direction | speed KPH | gust KPH | rain 1hr cm | rain 24hr cm | rain mn cm | humidity % | barometer mb |
| 20260504215108 | 11 | 185 | 0.0 | 1.6 | 0.00 | 0.00 | 0.00 | 76 | 1010.9 |
| 20260504214108 | 11 | 185 | 0.0 | 0.0 | 0.00 | 0.00 | 0.00 | 74 | 1011.0 |
| 20260504213108 | 12 | 185 | 0.0 | 0.0 | 0.00 | 0.00 | 0.00 | 74 | 1011.2 |
| 20260504212108 | 12 | 185 | 0.0 | 0.0 | 0.00 | 0.00 | 0.00 | 73 | 1011.4 |
| 20260504210108 | 12 | 185 | 0.0 | 0.0 | 0.00 | 0.00 | 0.00 | 72 | 1011.4 |
| 20260504204108 | 13 | 185 | 0.0 | 0.0 | 0.00 | 0.00 | 0.00 | 71 | 1011.6 |
| 20260504203108 | 13 | 185 | 0.0 | 0.0 | 0.00 | 0.00 | 0.00 | 70 | 1011.5 |
| 20260504202108 | 13 | 185 | 0.0 | 0.0 | 0.00 | 0.00 | 0.00 | 69 | 1011.6 |
| 20260504200108 | 13 | 185 | 0.0 | 0.0 | 0.00 | 0.00 | 0.00 | 68 | 1011.5 |
| 20260504195108 | 14 | 185 | 0.0 | 0.0 | 0.00 | 0.00 | 0.00 | 66 | 1011.4 |
| 20260504193108 | 15 | 185 | 0.0 | 0.0 | 0.00 | 0.00 | 0.00 | 64 | 1011.5 |
| 20260504191108 | 15 | 185 | 0.0 | 0.0 | 0.00 | 0.00 | 0.00 | 61 | 1011.2 |
| 20260504184107 | 16 | 185 | 0.0 | 0.0 | 0.00 | 0.00 | 0.00 | 60 | 1011.0 |
| 20260504182107 | 17 | 185 | 0.0 | 0.0 | 0.00 | 0.00 | 0.00 | 59 | 1011.1 |
| 20260504180107 | 18 | 185 | 0.0 | 0.0 | 0.00 | 0.00 | 0.00 | 56 | 1011.0 |
| 20260504175107 | 18 | 185 | 0.0 | 0.0 | 0.00 | 0.00 | 0.00 | 52 | 1010.9 |
| 20260504172107 | 19 | 185 | 0.0 | 0.0 | 0.00 | 0.00 | 0.00 | 49 | 1010.9 |
| 20260504171107 | 20 | 185 | 0.0 | 0.0 | 0.00 | 0.00 | 0.00 | 48 | 1010.9 |
| 20260504170107 | 20 | 185 | 0.0 | 0.0 | 0.00 | 0.00 | 0.00 | 47 | 1010.8 |
| 20260504141106 | 21 | 153 | 0.0 | 0.0 | 0.00 | 0.00 | 0.00 | 47 | 1011.6 |
| 20260504140106 | 21 | 152 | 0.0 | 1.6 | 0.00 | 0.00 | 0.00 | 46 | 1011.7 |
| 20260504130109 | 22 | 148 | 3.2 | 12.9 | 0.00 | 0.00 | 0.00 | 46 | 1012.2 |
| 20260504090108 | 17 | 89 | 0.0 | 6.4 | 0.00 | 0.00 | 0.00 | 53 | 1013.6 |
| 20260504081107 | 17 | 168 | 4.8 | 19.3 | 0.00 | 0.00 | 0.00 | 51 | 1013.4 |
| 20260504060106 | 11 | 31 | 1.6 | 11.3 | 0.00 | 0.00 | 0.00 | 70 | 1012.7 |
| 20260504043106 | 8 | 59 | 0.0 | 0.0 | 0.00 | 0.00 | 0.00 | 73 | 1012.8 |
| 20260504041105 | 8 | 59 | 1.6 | 8.0 | 0.00 | 0.00 | 0.00 | 71 | 1012.7 |
| 20260504035105 | 9 | 59 | 0.0 | 0.0 | 0.00 | 0.00 | 0.00 | 68 | 1013.0 |
| 20260504031105 | 11 | 38 | 0.0 | 1.6 | 0.00 | 0.00 | 0.00 | 60 | 1013.0 |
| 20260504030105 | 11 | 38 | 0.0 | 1.6 | 0.00 | 0.00 | 0.00 | 60 | 1013.1 |
| 20260504025105 | 11 | 34 | 0.0 | 6.4 | 0.00 | 0.00 | 0.00 | 61 | 1013.1 |
| 20260504024105 | 11 | 20 | 3.2 | 12.9 | 0.00 | 0.00 | 0.00 | 61 | 1013.2 |
| 20260504023105 | 11 | 83 | 0.0 | 6.4 | 0.00 | 0.00 | 0.00 | 61 | 1013.1 |
| 20260504021105 | 11 | 115 | 0.0 | 0.0 | 0.00 | 0.00 | 0.00 | 61 | 1013.2 |
| 20260504012107 | 11 | 115 | 0.0 | 0.0 | 0.00 | 0.00 | 0.00 | 62 | 1013.0 |
| 20260504010107 | 11 | 115 | 0.0 | 0.0 | 0.00 | 0.00 | 0.00 | 61 | 1013.1 |
| 20260503235106 | 12 | 85 | 0.0 | 0.0 | 0.00 | 0.00 | 0.00 | 61 | 1013.3 |
| 20260503231106 | 12 | 87 | 0.0 | 6.4 | 0.00 | 0.00 | 0.00 | 60 | 1013.3 |
| 20260503224105 | 12 | 104 | 0.0 | 0.0 | 0.00 | 0.00 | 0.00 | 58 | 1013.6 |
| 20260503223105 | 12 | 104 | 0.0 | 1.6 | 0.00 | 0.00 | 0.00 | 58 | 1013.7 |
| 20260503221105 | 13 | 112 | 0.0 | 0.0 | 0.00 | 0.00 | 0.00 | 57 | 1013.8 |
| 20260503220105 | 13 | 112 | 0.0 | 0.0 | 0.00 | 0.00 | 0.00 | 57 | 1013.7 |